Theta_e
295 295 294 295 295 295 297 297 298 297 298 298 296 295 299 299 291 288 297 300 298 299 302 304 305 307 307 311 312 313 313 314 314 314 312 312 312 313 313 314 315 314 314 316 317 318 319 321 321 321 322 322 323 324 324 325 325 326 327 327 326 326 326 326 327 327 328 328 328 329 327 327 327 326 327 328 328 327 325 324 323 322 321 322 323 323 323
294 294 294 295 294 294 295 296 296 298 299 299 300 299 300 299 298 300 301 299 297 299 300 302 303 305 307 308 311 311 311 310 312 312 311 310 309 310 310 311 313 313 313 314 315 317 318 319 320 320 320 322 322 322 322 323 323 324 325 325 324 323 324 325 326 326 327 327 327 327 327 326 326 326 326 326 325 325 326 326 325 326 322 322 321 324 322
292 295 295 294 294 293 292 295 296 297 297 297 298 300 301 301 300 301 299 296 294 299 301 301 304 306 307 308 307 308 309 309 309 308 308 307 307 308 309 310 311 312 312 313 313 314 314 315 316 318 318 319 321 321 321 321 322 323 323 322 323 322 322 323 324 326 326 326 326 326 326 326 327 325 325 326 326 326 326 325 324 322 324 324 322 326 326
289 293 292 293 293 292 291 292 294 295 296 293 295 293 299 299 296 299 297 293 291 298 301 302 304 305 301 300 304 305 306 307 307 306 306 306 306 306 306 306 306 306 307 308 309 311 312 312 313 314 315 315 315 315 317 317 318 322 323 323 322 322 322 323 324 324 324 324 324 325 325 325 325 324 324 325 325 325 324 323 321 322 321 320 321 320 322
288 294 293 292 292 291 287 287 291 295 294 295 296 297 299 297 299 296 291 294 299 300 300 296 294 295 296 296 297 296 295 298 303 302 299 301 304 305 305 303 303 304 305 307 308 308 309 309 310 311 312 312 312 312 313 315 316 317 318 320 321 321 322 322 323 324 323 323 323 323 324 324 324 325 325 325 323 322 323 323 322 321 321 323 324 324 325
288 292 293 294 289 281 285 296 300 297 294 293 293 292 293 297 299 297 301 299 301 300 298 295 293 292 292 292 294 297 297 295 292 295 298 299 300 301 301 301 301 303 304 304 305 306 308 308 309 310 311 310 311 312 312 313 313 313 313 313 315 315 316 317 318 319 320 321 322 323 324 324 324 324 325 325 326 325 326 324 323 324 325 325 325 325 325
287 291 292 287 281 284 292 297 298 299 299 297 294 293 296 296 298 299 298 298 299 300 297 294 292 291 291 292 292 293 295 295 294 292 292 294 295 296 296 297 298 298 299 300 303 304 305 306 307 308 308 309 310 310 312 311 312 313 313 312 312 313 313 313 313 314 313 313 315 317 319 322 323 324 325 326 326 326 326 325 323 323 324 324 324 324 324
290 287 287 279 282 290 294 295 297 300 300 298 296 293 296 297 298 298 295 295 295 294 293 293 292 291 291 291 291 291 291 294 293 292 291 294 294 294 296 296 296 298 299 299 298 299 302 303 304 305 306 308 308 308 309 310 310 311 312 312 312 312 312 312 313 312 313 313 313 313 314 315 316 317 320 323 324 326 324 323 324 324 324 324 323 323 324
285 287 286 285 290 291 292 291 293 295 293 295 294 288 292 298 299 298 294 293 294 294 293 293 293 294 293 291 291 293 293 292 293 294 294 297 297 297 298 297 297 299 300 299 300 300 300 300 301 303 304 306 307 307 307 307 308 309 310 309 310 311 312 312 313 313 313 312 313 313 313 313 313 314 316 318 319 320 320 320 320 320 321 320 320 321 321
291 287 286 285 283 281 286 293 297 298 297 297 298 295 290 297 300 300 296 293 293 294 294 294 295 296 293 289 291 295 296 297 297 296 297 299 299 298 299 301 303 302 301 301 302 302 302 302 301 302 302 304 304 305 306 306 306 307 307 307 307 308 309 310 310 312 313 312 312 312 313 312 312 313 314 316 317 319 318 317 318 319 320 318 320 321 319
289 287 283 283 281 283 290 293 295 297 298 297 297 292 287 295 299 300 299 297 297 297 296 296 297 295 289 288 292 297 298 299 298 297 298 298 298 299 299 297 297 299 300 301 301 302 302 299 300 302 302 303 301 303 304 304 304 305 306 306 306 306 307 308 308 310 311 311 312 312 312 313 314 314 314 314 315 318 316 317 317 318 318 317 318 318 319
287 287 284 283 285 282 291 294 294 295 298 297 295 283 284 293 298 299 299 298 298 299 300 299 298 294 292 290 294 298 298 298 299 298 297 298 298 298 299 299 299 299 299 300 300 300 299 299 300 300 300 300 301 301 301 302 303 303 305 306 306 306 307 307 308 308 309 310 311 311 312 313 314 314 314 315 316 316 315 315 315 315 314 313 313 314 316
288 285 286 286 284 289 292 293 295 295 298 295 284 281 287 294 296 298 298 298 299 299 298 299 292 294 295 296 297 299 298 298 298 299 299 298 298 298 298 297 297 298 298 299 298 299 300 300 300 300 300 300 300 300 302 302 302 304 305 306 306 306 305 305 306 307 307 308 309 310 311 311 312 313 314 313 315 314 313 313 313 312 312 312 312 312 314
286 287 284 284 285 290 295 295 295 296 292 283 282 290 298 297 297 298 298 297 297 298 296 294 294 295 297 297 298 297 297 297 297 297 297 297 298 298 298 297 297 297 298 299 299 299 300 299 300 300 300 299 299 300 300 301 303 304 304 305 306 305 304 304 305 306 306 307 308 309 309 310 311 311 312 314 314 314 313 312 312 311 311 310 309 310 311
287 286 283 283 279 286 296 295 292 294 286 286 292 295 297 298 297 297 297 298 297 298 295 296 295 295 295 295 296 296 296 296 296 296 296 296 296 296 297 297 297 296 297 297 297 298 299 299 300 300 299 299 299 299 299 300 302 303 303 304 304 304 304 304 304 305 305 305 306 308 308 308 309 309 310 311 312 313 313 313 311 310 310 310 309 309 309
284 284 280 280 285 291 296 295 288 292 293 295 297 296 294 297 297 296 296 297 298 298 297 296 296 296 296 295 295 295 295 295 295 295 296 296 296 296 296 296 296 295 296 296 297 298 299 299 299 299 299 298 298 298 299 301 302 302 302 303 303 303 303 303 304 304 304 304 305 305 306 307 307 307 308 309 310 311 312 311 310 310 310 311 309 308 308
286 285 285 290 294 295 296 296 295 296 297 299 298 298 296 296 296 298 296 296 297 298 297 296 296 295 295 295 295 295 295 296 295 295 295 295 296 296 296 296 296 296 296 296 297 297 298 299 299 299 299 298 298 298 300 301 300 301 301 301 301 301 301 302 303 303 304 304 304 305 305 306 306 306 306 307 307 309 310 310 309 308 309 311 308 308 307
293 294 294 294 294 294 294 296 297 296 297 298 298 296 294 294 295 296 295 295 295 295 296 296 294 294 294 295 295 295 295 295 295 296 296 296 297 297 297 297 296 296 297 297 297 297 298 298 299 299 299 299 298 299 300 300 301 301 300 300 300 300 300 300 301 301 302 303 303 304 304 304 305 305 305 305 305 306 307 307 309 310 309 309 310 307 307
288 283 292 292 292 294 294 294 295 296 297 296 296 295 295 295 295 295 295 295 295 295 295 294 294 293 294 294 294 294 294 294 294 295 295 296 296 296 296 297 296 296 296 296 296 296 296 298 299 299 299 299 299 300 300 300 300 300 300 299 299 300 300 300 301 301 301 301 302 303 304 303 303 303 303 304 304 304 305 306 307 309 309 310 307 305 306
286 286 291 293 294 294 295 295 294 293 294 294 295 294 295 295 295 296 296 296 295 295 294 294 294 294 294 294 293 293 294 294 294 295 295 295 296 297 297 297 296 296 296 296 296 296 296 297 298 298 298 298 299 299 299 300 300 299 299 299 298 299 299 299 299 300 300 293 296 299 301 302 302 302 303 304 303 303 303 304 305 306 307 307 306 308 308
291 292 293 293 294 293 293 295 296 296 295 295 295 295 294 294 294 294 294 295 294 294 293 294 294 293 293 294 294 293 294 294 294 294 295 296 296 296 296 296 296 296 296 295 295 295 296 297 297 297 298 298 298 299 299 299 299 298 297 297 297 298 298 298 298 299 299 300 300 299 299 300 302 303 302 302 302 303 305 306 306 306 308 307 308 310 310
286 286 290 292 286 285 290 293 294 295 296 296 294 294 293 294 294 294 293 293 294 294 294 294 294 293 293 294 294 293 294 294 294 295 295 296 296 296 297 297 297 296 296 296 295 295 296 297 297 297 298 298 299 299 299 299 298 297 297 296 296 296 297 297 297 298 298 297 298 298 299 299 300 301 294 295 300 303 304 293 287 290 294 307 310 311 311
284 290 292 293 293 292 293 294 295 296 296 295 295 294 294 294 294 294 294 293 293 294 294 294 294 294 294 293 294 293 293 294 295 295 295 295 296 296 296 296 296 296 296 296 296 296 296 297 297 297 298 298 298 298 298 298 297 296 296 295 295 295 295 296 295 296 296 297 298 298 298 298 299 299 300 301 294 293 294 295 294 290 291 287 286 290 304
292 294 294 294 293 291 293 295 296 295 296 296 294 294 293 294 295 294 294 295 294 294 294 294 295 294 293 294 294 293 293 294 294 295 295 295 296 296 296 296 296 296 296 296 296 296 297 297 297 298 297 298 298 298 297 297 297 296 296 295 294 294 295 295 295 294 296 296 297 296 297 298 297 297 297 298 301 294 289 290 290 290 290 290 290 290 292
290 294 295 295 295 295 296 296 296 296 296 296 295 294 295 294 294 295 294 294 294 293 293 293 294 294 293 293 294 293 293 293 294 293 293 294 294 295 296 296 296 296 296 296 297 297 297 297 297 297 297 297 297 297 296 296 296 295 295 295 294 294 295 295 294 293 293 294 294 295 295 295 296 297 297 297 296 299 296 287 287 289 290 290 290 289 289
295 295 295 295 295 295 296 294 294 295 295 295 294 294 294 293 294 294 294 294 294 294 293 293 293 294 294 293 293 293 293 293 292 292 295 295 295 295 295 295 296 296 296 296 296 297 297 297 296 296 296 296 296 296 296 296 296 296 295 295 295 295 295 295 294 294 293 293 293 294 294 295 295 295 296 297 297 297 298 300 299 293 289 288 288 289 288
294 295 293 292 292 292 293 292 291 294 295 295 295 294 295 294 291 294 294 293 293 293 294 294 293 294 294 293 292 293 292 292 293 294 294 295 294 295 296 296 296 295 296 296 296 296 294 296 296 295 295 296 297 297 297 296 296 295 295 295 294 291 288 289 294 293 293 293 293 293 293 294 294 294 294 296 297 297 297 297 299 299 300 298 292 293 294
294 294 294 290 289 290 293 293 295 295 294 294 294 293 294 294 294 292 292 293 293 294 294 294 293 293 292 293 292 292 292 292 292 292 293 293 294 295 296 296 296 296 296 296 296 297 296 297 297 296 296 297 297 297 296 296 296 295 295 295 295 294 295 294 295 295 294 294 293 293 292 293 293 293 293 293 293 295 296 297 297 299 300 300 298 289 288
293 294 294 294 294 295 295 295 294 294 293 294 294 294 294 292 292 292 292 292 292 292 292 293 293 293 293 292 292 292 291 291 291 291 292 293 294 295 295 295 295 295 295 295 296 297 297 297 297 296 296 298 297 297 297 297 296 296 295 295 295 295 295 296 295 295 295 295 294 294 291 291 292 292 293 293 293 294 297 297 297 300 300 298 296 294 292
294 294 294 294 294 294 293 293 293 293 293 293 293 293 293 292 291 291 292 291 292 291 292 292 292 292 292 292 292 291 290 290 289 291 292 292 293 294 294 294 295 296 297 297 296 296 297 297 296 296 296 298 297 297 297 297 296 296 296 295 295 295 295 295 295 294 294 294 293 289 291 291 292 292 291 292 293 293 294 295 296 295 297 297 294 296 294
293 294 294 294 294 293 292 292 292 292 293 293 293 292 292 292 291 291 291 291 292 291 292 292 291 292 292 291 291 291 290 290 289 289 290 292 292 291 291 291 289 290 292 293 295 296 297 297 297 296 298 298 298 297 297 297 297 296 296 295 295 291 288 288 289 293 293 292 292 292 292 291 291 290 290 290 290 291 293 295 296 295 296 298 299 297 295
292 292 293 293 292 292 292 292 292 292 292 293 292 291 291 290 290 290 291 290 291 291 291 291 290 289 289 289 289 289 287 287 286 287 290 290 288 287 286 286 289 288 292 294 295 296 297 296 296 297 298 298 298 297 297 297 296 296 295 292 295 295 292 288 291 290 290 291 292 292 290 290 291 291 290 290 290 291 292 294 295 296 296 296 297 297 297
291 289 289 290 291 291 291 291 291 291 292 291 290 292 292 292 292 291 291 291 291 291 291 289 290 290 289 288 287 286 286 285 286 286 287 286 286 286 286 288 290 293 294 295 296 297 296 296 297 298 298 298 298 298 298 297 296 295 295 295 295 294 290 290 289 291 291 291 291 292 292 291 291 291 292 291 290 290 292 294 295 295 295 298 297 297 296
291 290 291 291 291 290 290 291 292 292 292 293 293 293 292 292 292 292 292 291 292 290 289 288 289 289 288 285 285 285 284 284 287 287 285 285 285 286 286 289 292 294 296 297 297 297 297 298 298 297 297 298 298 298 299 298 296 295 295 294 293 292 293 292 291 291 291 291 291 291 291 290 291 291 290 290 291 291 292 293 295 295 296 296 294 293 289
294 294 293 293 294 293 293 293 292 292 292 290 291 292 292 292 292 292 291 291 290 289 291 289 288 286 285 285 284 284 283 284 284 283 285 285 286 285 287 290 293 294 294 296 297 297 297 299 297 296 296 297 298 298 299 297 297 296 296 295 293 292 292 292 292 291 291 292 293 293 292 292 292 290 289 290 293 292 294 293 292 291 294 292 292 293 290
294 293 293 293 294 294 293 293 293 293 293 292 289 289 290 292 292 292 292 292 293 292 291 289 287 286 285 284 285 284 283 284 284 284 284 284 285 287 288 288 289 290 292 294 297 297 297 298 288 286 292 295 297 300 298 297 298 297 296 295 294 293 292 292 292 292 292 293 293 293 293 291 290 290 292 294 295 296 294 295 294 293 292 292 291 291 290
294 294 293 293 293 294 294 294 294 294 293 293 292 291 290 291 291 293 293 293 293 293 292 291 288 287 285 285 286 285 285 285 286 286 287 286 287 287 287 287 287 288 288 291 291 294 296 296 288 286 292 298 298 299 297 288 297 296 296 296 295 293 292 292 292 292 292 293 292 293 292 292 295 296 293 298 294 293 293 293 293 293 291 291 291 291 291
294 294 294 294 294 294 294 294 294 294 294 294 293 292 292 292 293 293 293 293 293 293 292 292 290 289 288 287 286 285 285 285 284 284 285 285 285 286 286 287 289 289 290 289 291 294 295 292 288 292 297 298 299 300 296 288 288 295 298 296 295 293 292 292 291 290 291 292 292 295 295 295 293 295 295 296 295 294 293 292 292 293 292 292 291 291 292
293 294 294 295 295 294 294 294 294 294 294 293 293 293 293 293 294 294 293 293 294 293 292 292 292 292 291 290 288 286 285 285 285 285 285 285 286 286 287 288 289 288 288 290 292 294 295 291 294 296 297 298 299 299 295 290 288 296 298 297 296 294 293 292 291 290 290 291 292 292 293 293 294 293 292 294 293 291 291 292 293 292 292 293 293 293 293
293 293 293 294 293 293 293 293 293 294 294 294 294 293 293 293 293 293 293 293 294 292 292 291 291 290 291 291 291 290 289 288 288 286 285 286 287 286 288 291 293 293 292 288 292 293 291 287 292 297 297 297 298 297 295 292 290 296 297 297 296 295 294 292 292 290 290 290 291 290 292 292 292 292 292 293 293 292 292 292 291 291 292 292 291 291 291
293 293 293 294 294 294 293 293 293 294 294 294 294 294 295 294 294 293 293 292 294 294 293 292 291 290 291 291 291 291 291 290 289 288 288 287 287 287 288 290 292 294 292 291 292 292 290 290 293 294 294 294 296 292 294 290 293 298 297 296 295 295 294 293 292 291 290 290 290 291 292 292 291 291 291 292 292 292 292 291 291 291 291 291 291 291 291
295 295 294 294 294 294 294 294 294 293 294 295 295 295 295 295 294 293 294 294 294 294 293 292 289 291 292 292 292 291 290 290 288 287 288 287 287 287 287 290 293 292 287 288 290 291 294 294 293 290 291 291 292 288 286 289 294 298 297 297 296 295 294 294 293 292 292 291 291 291 291 291 291 291 291 291 291 291 291 291 291 290 291 290 290 291 291
294 294 295 295 295 295 294 293 293 293 294 295 296 296 295 295 295 294 294 294 294 294 293 292 291 289 289 289 290 290 290 290 290 290 290 290 291 290 288 290 292 291 285 288 291 294 294 293 293 291 286 286 288 285 285 293 297 297 297 296 296 295 295 294 294 294 293 292 292 292 292 290 291 291 291 291 291 291 291 291 290 291 291 291 291 291 291
294 294 295 295 295 295 294 294 293 293 293 294 296 297 297 295 295 294 294 294 294 293 292 292 292 292 291 291 290 290 290 290 290 290 291 291 291 291 291 290 292 289 284 288 292 293 293 292 291 287 284 284 284 284 289 295 296 296 296 296 295 296 295 295 295 294 294 293 292 293 292 291 291 291 291 291 290 290 290 290 290 291 291 292 292 292 291
293 294 294 295 295 295 294 294 294 294 294 296 296 296 296 295 296 295 294 294 293 293 293 292 291 291 291 291 290 291 291 291 291 291 290 289 289 291 292 286 288 289 289 286 291 293 293 290 287 283 285 284 285 284 292 295 295 295 295 296 295 295 294 294 295 295 294 294 293 292 292 291 292 291 292 291 290 291 290 290 290 290 290 290 290 290 290
293 294 294 291 295 295 295 295 296 297 296 295 295 295 295 295 296 295 295 295 295 294 294 294 293 292 291 291 292 292 292 291 291 291 292 292 291 291 291 289 290 287 285 285 291 292 290 283 284 285 284 284 284 289 294 293 293 294 294 294 294 293 294 295 294 293 294 294 294 294 293 292 291 290 290 291 290 290 290 290 291 292 292 292 292 291 291
293 293 294 294 294 295 295 296 296 296 295 295 294 294 295 296 296 296 296 296 295 295 295 295 294 293 293 292 291 291 290 290 291 291 291 292 290 289 286 285 285 285 286 290 291 291 288 288 286 284 284 285 284 291 294 293 294 293 293 293 293 293 293 294 294 294 293 292 292 291 290 291 292 292 291 290 290 290 289 289 289 289 289 289 289 289 289
294 294 294 293 294 295 295 294 294 294 294 293 294 294 294 296 296 296 297 297 296 296 295 296 295 295 294 292 292 292 293 291 289 290 292 292 293 291 290 292 288 286 284 285 285 285 282 284 284 283 284 284 288 293 293 293 293 292 293 293 293 293 292 292 292 293 292 292 292 293 292 292 291 290 289 289 289 289 289 289 289 288 289 289 288 288 288
294 293 294 295 294 294 293 293 293 292 293 294 294 294 295 295 295 296 296 297 296 296 295 295 295 295 295 293 292 292 292 292 291 291 292 293 292 292 291 286 284 283 286 290 292 290 285 283 284 284 284 285 292 293 292 292 291 289 290 290 291 291 292 291 292 291 292 291 291 291 292 291 291 290 289 289 288 288 287 287 287 287 287 287 287 287 287
294 293 293 294 293 293 292 291 291 292 293 294 293 294 295 295 293 294 294 295 296 294 296 296 295 295 294 294 293 292 292 292 292 293 292 292 293 293 290 289 288 285 286 290 293 289 285 282 284 285 287 290 292 291 291 291 290 289 289 289 289 289 288 288 287 288 290 290 290 290 289 289 289 288 288 288 287 287 287 286 286 284 284 285 286 286 286
292 291 292 293 292 293 294 294 294 294 294 294 294 294 294 293 294 293 295 294 295 294 295 295 295 295 295 294 294 293 293 292 291 289 291 291 291 289 289 290 289 286 288 288 289 291 290 291 290 288 289 291 291 291 290 290 290 290 288 289 289 289 289 289 290 291 291 290 290 290 290 290 290 289 289 288 287 287 287 286 286 286 286 286 285 285 285
294 294 293 293 294 296 295 294 294 294 296 295 294 295 296 295 294 294 294 290 294 294 295 295 294 295 295 294 293 293 293 293 291 290 289 290 291 291 288 287 289 287 286 288 290 292 291 290 287 286 287 290 290 288 286 286 288 288 288 288 288 289 288 288 288 289 289 290 289 290 289 289 289 288 288 288 288 288 287 287 287 286 286 285 285 285 284
Wind_Speed
5 5 8 12 14 11 7 6 4 2 5 8 9 4 3 3 7 2 10 9 13 11 10 11 11 8 8 6 8 8 8 9 10 10 9 9 10 10 10 9 8 10 9 7 7 8 8 9 9 9 9 8 8 7 6 6 5 5 3 4 5 5 4 4 5 4 4 4 4 6 5 6 7 7 6 5 4 5 5 5 5 8 9 8 8 9 8
9 8 6 6 8 7 6 3 6 6 6 6 4 4 3 1 7 12 12 17 14 9 9 7 7 7 7 7 7 8 9 9 10 10 11 11 10 10 10 10 10 11 9 8 7 8 8 9 9 9 8 8 8 8 8 7 7 6 4 4 5 5 5 5 5 4 3 4 4 4 5 4 3 3 2 3 5 4 4 3 5 8 7 8 7 9 9
8 8 9 8 8 8 9 5 5 6 5 7 7 8 10 13 13 13 15 17 13 9 8 8 6 5 6 7 8 9 9 10 10 11 13 13 12 11 11 11 11 11 11 10 10 9 8 7 6 7 8 7 8 9 8 6 5 5 6 6 5 5 5 5 4 5 4 3 2 3 3 5 6 7 6 4 4 4 3 2 3 5 10 8 7 4 5
4 7 8 7 8 8 8 9 7 4 5 5 7 5 7 4 10 11 12 10 8 9 9 9 8 8 10 11 9 9 8 9 9 10 11 11 12 12 13 13 12 12 12 11 11 10 9 9 8 7 6 6 6 5 5 5 6 6 5 5 5 5 4 4 4 4 4 3 3 3 2 2 3 5 6 7 5 4 3 2 3 1 1 4 3 2 3
6 8 8 9 7 6 9 10 11 4 4 5 6 9 10 10 3 9 5 6 10 13 11 11 10 11 11 12 12 13 16 14 12 15 16 14 11 12 13 13 13 12 12 12 11 11 10 9 8 8 8 7 7 7 7 6 5 4 5 6 5 5 4 5 5 3 2 2 2 2 1 2 3 3 4 4 6 6 4 3 4 6 8 8 6 5 5
5 8 11 7 6 9 4 6 5 4 5 4 5 5 6 8 7 7 10 12 13 12 11 11 11 11 12 12 14 14 11 12 15 16 14 14 14 14 13 13 13 13 12 11 11 11 11 10 10 9 8 7 6 6 6 6 5 5 6 6 6 6 6 5 4 3 2 2 2 2 1 1 2 3 3 4 3 4 4 6 8 8 8 8 7 7 7
3 2 2 4 10 7 7 3 2 2 5 8 11 7 6 8 9 11 13 13 13 12 12 13 14 14 14 14 14 15 15 15 13 11 10 12 12 12 12 13 14 15 16 16 15 13 12 10 10 9 9 7 5 6 5 5 5 5 6 7 6 5 5 4 4 4 4 4 4 3 1 0 1 3 3 3 4 4 5 5 6 6 7 7 6 6 7
2 1 4 4 1 6 1 2 1 4 7 10 12 9 6 6 8 11 13 13 14 15 15 15 14 16 16 12 11 10 9 9 7 6 7 10 10 10 8 9 11 12 12 12 13 14 16 15 12 11 10 8 6 6 5 4 4 5 5 6 6 5 3 3 4 3 2 2 1 1 1 1 2 3 3 4 5 5 5 5 5 6 7 7 8 7 7
6 5 6 3 3 4 5 2 5 1 4 5 3 3 6 4 7 9 13 13 14 14 15 16 16 16 14 13 9 10 10 7 7 8 7 7 6 6 4 6 6 7 8 10 9 9 10 12 14 15 13 11 8 7 6 6 6 6 5 6 6 4 4 5 4 4 4 5 4 3 2 2 3 3 3 3 4 4 5 5 5 5 6 6 6 7 7
6 7 7 5 4 8 4 3 5 1 2 5 6 8 7 2 4 9 12 13 14 15 15 15 16 14 12 11 9 10 11 11 11 11 11 8 7 6 5 4 6 7 6 4 3 2 4 5 6 7 11 13 12 8 7 7 7 7 6 6 6 6 6 6 5 5 4 4 4 5 5 5 5 4 3 4 5 5 5 5 6 6 6 6 6 6 7
4 5 8 6 4 2 2 5 3 3 3 3 5 2 5 4 6 9 12 13 14 14 14 14 13 8 8 8 8 8 9 10 9 8 8 9 8 8 6 7 7 6 5 4 4 2 3 5 5 5 4 5 7 8 8 8 7 5 5 5 5 6 6 6 6 6 6 6 6 6 5 6 5 4 5 6 6 5 6 6 5 5 6 6 6 6 6
7 7 7 6 3 3 3 4 4 4 5 3 5 6 7 6 5 8 9 10 11 11 11 11 5 3 3 11 10 10 9 8 8 7 6 6 6 6 7 7 6 5 5 4 4 4 3 4 5 5 5 5 7 6 6 6 6 5 5 5 6 6 6 6 6 6 5 5 5 6 6 6 6 5 6 6 5 5 6 7 6 5 6 7 7 7 8
4 5 5 2 3 3 2 5 6 5 5 4 4 3 8 7 6 5 8 7 6 7 7 5 5 11 11 11 11 9 9 8 8 6 5 6 6 6 7 7 5 6 5 5 5 6 5 5 5 6 6 6 7 6 6 6 6 6 7 7 7 7 7 7 7 7 6 6 6 6 7 7 6 7 6 7 5 6 7 7 7 8 8 7 7 7 6
6 5 6 1 6 4 6 1 4 7 5 3 2 7 7 9 9 9 8 8 5 6 10 11 10 11 11 11 9 9 8 7 6 5 6 6 5 6 6 5 6 6 5 4 5 6 6 7 7 7 7 8 7 7 6 6 7 7 7 7 6 8 8 8 8 7 7 7 7 6 7 7 7 8 8 8 7 7 7 8 9 10 8 8 8 8 7
2 2 5 5 3 3 5 5 3 5 3 3 3 5 9 7 9 9 9 8 9 9 9 10 12 11 10 9 8 8 7 6 6 5 6 5 5 5 5 5 7 7 5 5 6 6 6 7 7 7 8 8 7 7 7 8 8 8 8 8 8 8 8 8 8 8 9 9 8 7 7 8 8 9 8 9 9 9 9 9 10 11 9 8 8 8 7
4 4 1 3 4 2 2 2 3 6 8 7 6 7 7 7 7 7 6 6 5 7 8 8 9 9 9 8 7 7 7 6 6 5 5 5 5 5 5 5 6 7 5 6 6 6 6 7 7 8 8 8 8 9 9 8 9 9 9 9 9 9 8 9 9 9 10 10 10 10 10 10 10 10 10 10 10 10 10 10 10 9 10 11 10 9 10
2 4 3 3 3 6 6 7 7 7 5 6 7 6 7 7 7 7 7 7 6 6 6 6 7 8 7 7 7 6 5 5 5 5 5 5 4 4 4 5 6 6 5 6 5 5 6 7 7 6 6 7 8 9 9 9 9 9 9 9 9 9 10 10 10 10 10 10 10 10 10 10 10 10 11 11 11 11 12 11 11 12 10 9 13 12 11
10 8 7 6 5 7 8 8 8 7 6 6 6 9 10 11 10 7 6 6 6 6 5 6 7 7 6 6 6 5 5 5 5 4 4 5 4 4 4 4 6 6 5 5 5 6 7 6 6 5 5 5 6 6 6 6 7 7 8 8 9 9 10 10 11 12 12 12 12 12 12 11 11 11 12 12 12 13 13 13 12 12 12 10 10 13 13
4 4 5 7 7 7 8 9 8 9 7 8 9 10 9 8 7 8 7 6 7 7 7 7 6 6 5 5 5 4 4 4 4 4 4 4 4 4 5 5 6 5 5 5 6 8 7 8 8 7 8 8 9 9 10 10 10 10 10 10 10 9 9 9 10 10 12 10 10 11 12 12 12 12 12 12 13 13 13 13 14 13 10 6 4 8 13
0 7 8 8 8 7 7 7 7 8 8 8 8 8 7 6 7 5 5 5 6 5 6 6 6 6 5 5 5 3 3 3 3 4 5 5 5 5 6 6 6 5 6 7 7 7 7 7 7 8 8 9 9 9 9 10 10 10 11 11 11 12 13 12 11 10 10 10 12 12 11 11 12 12 12 12 13 13 13 14 13 10 11 9 10 7 6
7 10 9 9 9 7 6 6 7 7 7 8 8 8 8 7 7 6 6 6 6 6 6 5 4 5 5 5 4 4 3 4 4 4 4 4 4 4 6 6 6 6 6 7 7 7 7 7 7 8 9 9 9 10 10 10 11 11 11 12 12 13 13 12 12 11 12 12 11 10 11 13 12 12 13 13 13 13 14 11 8 8 8 11 9 7 6
3 3 8 10 4 5 7 7 7 7 7 8 8 7 6 5 5 5 6 6 5 5 5 4 4 4 4 5 5 4 4 4 4 3 4 4 5 5 5 4 5 6 6 7 7 7 6 7 8 9 10 10 11 11 11 11 11 11 11 11 12 12 11 11 11 11 11 11 13 14 13 12 12 13 15 15 14 12 9 9 11 10 8 2 4 7 6
1 5 9 3 3 4 8 8 7 6 4 2 2 1 2 7 4 4 1 5 5 5 5 4 4 4 4 4 4 4 4 4 3 4 3 4 3 3 3 4 5 6 6 7 6 7 7 8 8 10 10 11 11 11 11 11 11 11 11 10 10 10 10 10 10 10 11 11 12 12 12 13 13 12 12 13 17 19 19 16 6 7 8 4 3 6 4
7 5 6 2 1 6 7 7 5 4 2 1 4 3 3 3 5 1 1 4 3 2 1 3 3 3 4 4 5 4 4 3 4 3 4 3 2 2 3 4 5 6 6 6 7 7 7 8 10 11 12 12 12 12 12 11 11 10 11 10 10 10 10 10 11 10 11 12 12 12 12 12 13 14 13 14 12 5 6 7 8 8 4 8 9 8 2
6 6 5 5 6 8 6 4 3 3 2 5 4 4 7 4 3 2 1 1 2 2 2 2 2 4 4 4 4 4 4 4 3 4 4 2 1 2 3 4 6 6 6 6 6 7 7 9 10 11 11 12 12 12 12 11 10 10 10 10 11 11 11 11 11 11 11 11 10 11 12 12 12 12 13 13 13 13 1 6 4 4 6 2 6 9 9
6 5 4 6 6 6 5 6 6 4 5 4 4 3 7 4 7 1 1 1 2 0 1 3 3 2 4 3 3 4 3 4 4 4 3 2 2 2 3 4 5 5 6 6 6 7 8 9 10 10 11 12 12 12 11 11 10 11 11 11 11 11 11 11 12 11 11 11 10 11 11 12 11 11 12 12 13 13 13 6 3 3 4 3 5 9 8
3 2 3 2 2 2 2 3 3 5 4 4 1 2 1 8 4 7 3 0 3 2 3 2 2 2 3 3 3 3 4 4 4 2 3 2 2 3 3 4 5 6 7 6 6 6 7 8 9 9 10 10 11 12 11 11 10 10 11 11 11 11 11 9 10 12 11 11 11 10 11 11 10 10 11 12 13 13 13 13 10 8 8 5 5 3 6
2 1 2 1 1 2 3 4 3 4 3 3 2 2 2 3 3 2 4 4 2 2 1 1 1 3 3 2 3 3 3 3 3 3 3 3 2 3 4 5 6 6 6 6 6 7 7 8 9 10 11 10 10 11 11 10 10 11 10 11 11 11 10 10 8 9 10 11 11 11 11 11 10 9 9 10 11 12 13 13 12 10 5 5 4 6 10
1 2 1 2 4 3 3 2 2 2 3 1 3 3 2 3 3 3 2 1 1 1 2 2 2 2 2 2 3 3 3 4 4 4 4 4 5 4 5 6 6 7 6 6 5 7 7 8 10 10 11 11 11 11 11 11 10 10 10 10 10 10 10 10 10 10 11 11 10 9 9 8 9 9 9 10 10 12 12 12 10 4 4 5 6 6 7
3 1 1 2 2 3 4 3 4 3 1 2 3 4 3 4 4 4 1 0 2 2 2 3 3 2 2 3 2 3 3 4 4 5 4 4 4 4 5 6 7 7 5 3 5 7 8 9 10 10 11 11 11 13 12 11 10 10 10 10 10 9 10 10 10 11 11 11 10 7 7 6 7 9 9 9 10 10 10 9 8 2 5 6 8 8 7
3 2 1 1 1 2 3 4 3 1 2 3 3 4 4 4 4 3 2 1 2 2 2 3 3 3 3 3 3 2 2 3 2 2 4 4 3 3 5 6 5 5 6 6 7 7 8 9 9 9 10 11 10 12 12 11 10 10 9 8 8 9 6 6 9 9 9 9 9 7 6 5 6 7 7 7 6 8 9 9 7 4 5 8 8 8 8
4 4 4 4 4 4 4 4 2 3 3 3 4 5 5 5 5 4 3 3 2 3 3 3 2 3 2 2 2 1 1 1 2 2 2 1 2 2 3 5 6 6 7 7 6 6 8 9 9 10 10 10 9 11 11 11 10 8 8 8 9 9 7 8 8 9 8 7 8 7 5 5 6 7 7 6 6 7 8 8 7 5 3 5 3 8 9
4 5 5 4 4 4 5 4 2 3 4 4 4 5 5 4 3 3 3 3 3 4 2 0 1 1 2 2 1 0 1 3 2 2 2 2 3 4 4 4 4 6 6 5 5 6 7 8 9 9 10 10 9 10 10 11 9 8 8 8 8 8 8 7 6 9 7 7 7 7 7 6 6 5 6 5 4 7 8 7 6 3 4 3 8 6 7
5 4 3 1 3 3 3 4 2 4 4 4 5 6 5 4 3 3 4 5 5 1 1 0 0 2 2 2 2 1 2 4 3 4 2 2 3 4 4 4 5 6 5 6 5 5 6 8 8 8 9 10 10 10 9 10 7 8 8 8 7 7 8 8 8 8 7 8 7 6 6 4 5 5 4 4 6 6 7 7 1 2 2 7 7 8 9
5 3 1 0 1 1 2 3 3 5 4 5 7 6 5 4 4 3 3 3 3 3 2 2 3 3 3 2 2 2 2 3 3 2 3 2 3 4 4 5 5 5 5 6 5 5 6 8 8 9 10 10 10 8 8 8 8 8 9 8 7 7 7 7 7 7 7 7 6 6 4 4 4 3 4 6 7 7 4 3 7 5 4 5 6 8 8
5 3 3 2 1 1 2 3 2 5 7 5 4 3 1 4 4 4 5 6 4 3 5 5 4 3 3 3 3 4 4 3 4 4 4 5 4 4 3 3 4 6 4 6 3 5 6 6 11 12 9 9 9 6 8 8 8 9 8 8 7 7 7 7 7 6 7 8 7 5 4 2 2 3 2 4 4 1 4 3 4 7 6 5 5 7 7
5 4 3 2 1 3 2 2 3 4 2 7 7 7 7 3 4 6 3 4 4 2 5 7 4 4 4 5 3 2 2 3 2 1 1 1 2 2 3 3 4 4 4 3 3 6 6 6 10 14 11 7 6 6 8 9 8 8 7 8 8 7 7 7 7 7 7 8 8 3 1 1 2 3 1 2 4 7 6 5 7 7 6 6 6 6 7
5 5 3 3 2 2 3 2 2 3 4 6 7 8 8 7 6 5 4 3 1 3 4 5 6 5 4 4 4 4 3 2 2 3 2 3 2 2 4 5 4 2 2 3 5 6 4 7 11 11 9 6 6 7 9 10 11 9 6 8 8 8 8 7 7 7 7 7 8 6 2 5 5 5 4 6 7 8 7 7 7 6 5 6 4 4 4
5 3 3 3 3 2 2 1 2 4 5 6 7 6 6 5 4 3 3 4 3 1 3 5 4 5 6 8 7 5 5 4 3 3 3 4 3 3 3 3 2 2 2 2 6 5 4 6 9 9 7 7 7 7 9 9 11 8 7 7 8 8 8 7 7 7 7 8 8 8 8 8 7 7 5 8 8 9 9 8 8 7 5 4 5 5 6
5 5 5 4 4 3 2 3 4 4 5 5 5 5 6 7 6 6 7 4 2 3 3 4 4 4 4 4 5 6 8 7 5 3 4 3 3 3 4 6 4 3 1 2 5 3 5 9 8 6 6 7 7 7 6 9 12 7 6 7 8 8 8 8 7 7 7 7 7 7 8 8 8 8 8 8 8 8 8 8 8 8 8 8 8 8 7
5 5 5 5 4 3 3 3 4 5 5 5 5 5 5 5 6 6 3 5 6 4 3 3 4 4 4 4 2 1 5 5 5 5 4 3 3 3 4 2 3 2 2 3 4 5 6 7 5 5 6 7 6 7 7 11 10 5 6 6 7 7 7 8 8 7 7 7 7 7 7 7 7 8 8 8 8 8 8 8 8 9 9 9 8 8 8
8 6 5 5 5 4 3 2 4 5 5 5 5 5 5 5 4 5 5 6 4 1 3 4 1 3 4 3 1 1 3 5 5 5 5 5 4 2 3 1 2 4 5 3 9 9 6 2 3 6 6 7 7 10 13 10 8 4 5 6 6 6 7 7 7 8 7 7 7 7 7 7 7 7 8 8 9 9 9 9 9 9 9 9 10 9 8
6 6 5 5 5 5 4 4 4 4 5 5 6 6 6 6 6 6 5 5 4 3 3 3 7 6 5 6 5 4 3 4 6 6 6 6 5 5 4 3 2 5 2 3 5 4 2 3 4 5 7 7 8 13 16 10 3 4 4 5 5 5 6 6 7 7 7 7 8 8 8 7 7 8 8 8 8 8 9 9 9 9 9 9 9 8 8
6 6 5 5 5 4 3 4 4 4 4 5 5 6 6 6 6 6 5 6 6 4 4 4 3 3 3 4 4 4 4 4 4 4 5 5 6 6 5 3 1 5 3 3 3 3 2 3 5 6 7 10 12 13 10 7 5 5 5 4 5 5 5 6 6 6 7 7 7 7 8 8 7 7 8 8 8 8 7 7 7 8 9 9 9 9 8
7 7 7 6 6 4 5 5 5 4 4 4 5 6 6 7 7 6 6 6 6 5 4 3 3 3 3 4 4 4 3 1 2 2 4 3 4 6 5 3 2 2 3 4 4 2 3 4 5 6 7 9 11 13 9 4 4 3 3 5 4 4 5 4 5 6 6 7 7 7 7 7 7 6 7 7 8 7 7 6 6 7 7 7 8 8 7
7 8 8 7 7 7 6 5 4 3 4 4 5 5 6 6 6 6 6 7 6 6 6 5 4 3 4 4 4 3 3 3 2 2 2 3 4 5 5 5 4 4 3 5 3 2 5 5 4 6 7 10 10 10 3 3 3 3 3 3 3 5 4 5 4 5 5 5 6 6 6 6 6 6 5 6 6 6 6 6 8 7 7 7 7 7 7
7 7 8 8 8 9 8 6 6 6 6 5 5 5 5 6 6 6 6 7 7 6 6 5 5 4 4 4 4 4 4 4 4 4 3 3 4 4 6 5 5 2 3 2 2 3 4 4 4 6 8 10 12 7 3 3 3 3 3 3 3 3 3 4 4 5 5 5 5 6 7 6 5 6 7 6 6 5 5 5 5 5 5 7 7 8 7
8 8 7 8 8 9 9 8 8 8 8 7 5 4 4 5 6 6 7 6 6 7 6 5 5 5 4 4 5 4 4 2 2 5 4 2 4 4 4 4 4 4 1 2 4 5 5 1 3 6 8 9 9 3 3 3 4 3 3 3 4 3 3 2 3 3 3 3 3 4 3 4 5 5 4 5 5 5 5 5 5 5 5 4 4 4 4
7 8 9 8 8 8 8 8 8 7 8 8 8 7 6 6 6 6 6 7 7 7 7 6 6 5 5 5 4 4 4 3 2 1 4 3 3 4 6 7 7 5 4 3 3 4 4 2 2 6 9 10 5 3 3 4 4 4 4 3 3 3 3 3 3 3 4 4 4 4 4 4 4 5 4 4 5 4 5 5 4 4 4 4 5 5 4
8 8 7 7 8 9 8 8 7 8 9 8 8 7 6 6 6 6 6 6 6 6 6 6 6 6 6 6 6 5 4 4 4 2 2 2 2 3 4 4 4 4 4 3 1 3 6 4 4 5 7 3 3 3 3 3 3 4 3 3 4 3 5 5 6 5 5 5 4 4 4 3 4 5 5 4 4 4 4 4 5 5 5 4 3 3 3
4 7 7 6 6 7 8 9 9 8 7 5 5 7 8 8 6 5 5 5 6 6 7 6 6 6 6 5 5 5 5 5 5 5 4 4 4 3 2 4 5 4 4 3 2 2 3 5 2 2 3 2 2 2 2 2 2 3 2 2 2 3 3 2 2 4 4 3 4 4 4 4 5 5 5 5 5 5 5 4 4 3 3 3 3 3 3
7 7 7 8 7 5 4 7 7 7 8 7 8 6 4 8 8 6 6 7 7 7 6 6 7 6 6 6 6 5 5 5 6 6 5 5 5 5 5 3 4 5 5 5 3 3 1 2 3 1 4 2 1 2 4 2 0 2 1 2 2 2 3 3 4 3 3 4 3 4 5 4 4 4 4 4 5 6 5 4 4 4 4 4 4 4 4
Wind_Direction
215 279 300 323 327 348 9 21 24 293 222 215 213 227 263 277 262 213 123 106 112 126 122 97 71 96 127 153 127 126 124 125 130 126 121 115 108 100 92 86 102 101 102 96 94 94 99 109 115 113 106 104 104 102 100 101 106 98 108 131 131 133 142 156 162 156 147 130 216 175 176 197 199 197 209 211 214 231 242 266 257 221 219 220 214 217 220
218 212 239 245 273 320 323 29 26 42 48 67 86 87 62 110 95 116 128 118 105 109 112 77 69 75 81 86 116 131 140 133 127 123 110 107 94 91 90 97 94 90 83 79 89 109 121 116 111 108 111 114 118 117 115 116 113 113 119 116 120 121 119 113 108 108 125 138 174 177 182 189 214 265 241 238 239 240 261 267 313 319 280 230 226 225 223
223 215 202 207 240 254 276 304 353 7 48 63 58 71 72 92 103 110 106 106 103 78 99 115 121 113 109 114 104 109 120 126 118 114 113 102 103 97 92 93 94 92 96 100 96 83 70 70 88 104 104 117 119 115 110 101 94 103 118 118 104 109 105 106 109 114 108 109 120 151 165 192 178 169 216 197 220 225 219 267 326 316 306 275 252 326 332
207 199 213 207 189 205 235 257 292 336 352 49 29 54 7 87 134 129 118 106 119 125 125 135 128 109 77 66 76 114 122 119 119 117 116 118 111 102 93 84 81 78 79 76 77 85 89 83 75 79 84 94 82 78 85 91 107 124 119 102 102 101 101 105 99 104 117 131 139 133 170 190 218 200 202 195 200 215 208 204 195 173 201 288 341 209 218
237 184 191 207 198 204 223 227 229 232 90 91 79 59 49 27 11 165 177 115 125 130 126 106 74 73 79 73 58 52 39 34 72 76 60 55 79 109 94 73 68 67 67 63 57 54 57 60 78 87 86 78 84 95 97 109 108 101 90 102 105 96 100 101 93 101 106 101 95 139 180 217 190 209 216 216 177 201 209 170 174 209 233 212 196 207 219
241 224 194 206 216 231 234 33 38 137 154 137 81 60 43 37 42 59 78 112 119 129 132 119 105 77 61 58 46 49 65 60 38 34 50 64 68 63 52 43 44 49 54 55 53 50 48 48 46 44 52 66 67 54 65 59 58 83 90 80 73 75 78 78 81 86 104 95 130 138 168 205 209 216 218 228 228 196 175 190 202 192 195 206 201 200 216
309 67 128 218 234 228 56 261 68 38 106 111 107 92 80 88 89 101 106 119 131 124 117 111 100 87 72 58 56 50 50 58 61 62 47 36 40 42 39 36 37 34 25 20 21 30 34 34 32 30 31 30 49 70 67 67 51 57 63 70 71 65 55 63 76 43 52 54 29 30 29 165 222 244 232 221 215 220 211 211 209 204 202 207 206 210 209
121 202 193 232 23 55 101 77 213 94 115 121 106 83 82 115 123 120 108 94 99 108 110 109 104 98 91 74 55 58 50 53 68 62 61 61 56 47 38 40 34 32 29 28 22 13 4 8 18 21 15 7 32 44 43 66 74 53 63 72 63 41 53 31 26 36 356 54 342 299 321 320 281 258 225 225 229 229 235 235 225 221 220 218 216 216 216
217 198 209 232 108 182 132 138 140 189 152 172 234 185 116 104 136 120 121 121 120 120 120 123 127 124 114 101 108 120 112 121 103 91 77 71 52 59 77 84 69 53 36 37 29 23 20 9 1 354 358 357 9 22 28 29 39 69 57 48 48 41 21 30 23 1 359 335 356 310 294 280 270 267 260 239 239 223 225 225 219 221 216 214 217 218 215
222 238 226 195 200 249 158 60 92 54 65 3 4 103 100 127 157 128 134 132 132 133 132 134 139 137 112 104 114 125 132 130 131 140 144 132 118 88 68 117 119 103 87 66 37 52 65 37 10 2 352 340 348 9 18 14 22 37 38 37 23 24 11 4 349 357 348 336 331 333 318 300 296 290 276 267 250 233 239 228 215 208 210 212 204 206 205
213 239 257 247 241 61 21 98 65 50 10 338 1 200 129 139 151 152 144 140 142 142 147 149 160 176 122 119 125 125 124 114 108 105 96 101 108 103 82 37 23 47 55 77 101 98 35 10 4 331 335 323 350 347 356 1 354 22 23 10 358 4 357 350 345 348 343 341 331 324 315 307 315 300 288 274 263 241 241 234 231 211 212 213 207 196 191
251 272 261 268 77 131 80 86 36 24 358 6 268 220 181 154 163 140 144 149 147 154 151 164 142 7 168 133 122 124 113 98 81 75 83 74 64 61 56 49 16 23 18 20 26 30 28 4 341 337 334 342 336 345 346 346 339 348 2 352 340 340 341 339 329 322 324 328 331 324 318 316 307 303 291 275 253 241 235 235 211 213 219 227 212 211 185
240 218 265 120 115 69 359 10 349 0 353 306 189 231 107 139 114 138 127 128 131 127 161 155 88 75 71 102 108 108 106 102 93 86 63 56 41 41 40 36 19 7 7 15 1 7 0 353 349 343 343 343 336 336 337 332 342 342 340 330 331 334 325 318 314 309 318 316 317 314 305 299 299 293 281 272 260 241 245 240 242 226 225 232 222 218 180
274 276 259 279 87 23 25 58 2 348 281 191 114 89 128 122 127 127 121 123 120 135 83 73 88 90 90 94 99 98 90 83 77 61 54 43 36 38 40 37 34 3 352 5 0 1 353 352 353 349 348 341 332 337 326 330 339 331 323 326 324 316 307 300 302 304 298 297 301 297 290 291 289 280 276 275 268 253 242 240 240 242 228 223 226 217 202
249 247 254 239 226 69 323 76 82 351 1 81 119 127 112 124 122 124 121 121 116 112 97 94 96 99 91 89 88 86 78 70 66 59 53 43 35 31 20 14 34 360 346 0 4 354 351 353 353 345 343 335 333 334 333 333 331 328 326 313 304 302 304 303 298 294 290 283 276 272 272 274 276 273 273 271 262 255 254 249 245 242 232 229 223 210 204
303 295 320 42 48 100 74 277 76 84 92 124 132 126 123 118 118 103 97 91 105 111 114 118 98 94 99 85 74 74 73 69 65 60 55 47 34 32 17 18 23 350 349 359 349 349 348 355 346 346 340 336 337 335 327 336 333 328 321 316 313 307 302 294 290 284 283 280 273 266 264 261 259 260 260 260 260 254 245 240 242 239 231 218 214 213 204
2 46 88 119 86 67 66 78 106 98 101 129 131 126 130 137 123 119 108 101 89 91 100 90 86 85 68 70 63 64 61 69 58 41 49 43 38 27 21 22 21 344 355 346 343 347 352 348 347 340 339 331 333 325 328 331 328 322 320 318 313 308 301 294 287 284 281 280 280 278 275 265 259 255 252 252 253 251 250 246 247 245 235 229 232 224 213
93 72 73 104 95 82 73 71 78 95 97 84 78 80 69 51 50 58 95 91 79 67 49 83 80 65 67 66 63 60 59 48 52 40 37 35 34 23 18 28 17 344 348 344 351 351 343 341 339 338 328 324 315 317 311 309 310 314 312 311 309 305 302 300 299 295 290 286 282 277 272 268 264 258 256 250 247 247 245 245 244 239 234 232 238 237 225
189 90 116 104 113 110 94 90 82 75 77 68 56 64 67 66 67 68 60 60 57 54 57 63 72 74 59 65 64 56 53 48 43 33 42 34 24 22 16 28 9 352 356 355 356 349 345 343 343 338 333 325 323 326 325 323 319 314 311 306 303 298 293 298 300 298 294 286 285 279 270 265 261 260 257 254 249 246 248 243 236 239 241 244 262 269 263
275 122 127 120 111 125 126 121 113 105 95 89 78 78 78 78 72 74 76 70 69 60 68 58 70 77 63 52 41 37 52 41 31 30 28 16 15 27 24 25 7 6 12 12 12 5 1 357 351 345 340 338 329 324 318 315 312 309 305 305 306 306 305 301 297 289 280 286 293 281 279 275 274 270 262 256 252 249 245 245 242 232 238 229 226 214 244
107 120 133 137 133 120 128 118 103 105 111 108 109 111 112 109 95 91 78 58 68 76 76 75 69 77 69 51 27 21 26 31 34 23 18 7 24 20 23 26 24 29 24 18 8 359 354 353 348 343 339 331 325 318 314 311 312 306 304 304 300 297 297 295 290 293 296 288 265 261 275 282 275 267 261 259 261 266 264 270 273 254 235 234 237 230 185
170 159 149 153 151 160 139 130 120 121 116 114 117 119 112 89 79 80 86 87 86 80 70 63 61 53 57 49 26 12 23 33 26 10 11 348 16 16 29 30 29 23 15 10 357 354 353 352 345 341 335 332 328 326 323 320 318 311 307 301 299 296 295 293 295 296 290 290 303 303 284 264 264 269 267 271 278 276 273 103 87 58 31 323 250 216 189
71 115 151 136 16 123 133 125 128 120 111 117 119 79 82 102 104 38 25 127 131 101 82 55 51 50 33 26 20 13 12 8 1 360 356 357 7 29 13 17 14 14 7 4 353 354 350 346 339 338 337 335 335 332 328 319 314 307 304 301 299 295 295 294 302 301 296 297 295 288 292 299 283 276 283 265 236 239 257 273 277 134 125 126 49 350 282
84 101 104 12 89 117 127 129 133 140 113 119 79 76 73 360 19 56 49 14 17 69 152 140 89 27 18 357 8 349 358 340 360 353 13 326 357 10 358 7 10 3 4 356 354 348 344 339 338 340 337 335 336 333 329 323 316 311 306 303 298 297 296 297 296 294 295 296 289 289 290 285 292 293 276 274 275 213 235 260 314 322 205 171 157 151 178
94 86 74 74 87 103 126 139 121 108 94 351 26 57 35 3 116 8 14 94 80 30 29 355 328 30 345 10 346 356 334 345 0 356 289 253 177 294 345 3 0 356 353 347 341 338 335 338 337 336 331 336 337 334 329 324 317 309 305 300 296 294 296 292 291 290 287 282 283 284 282 283 281 278 279 275 275 272 157 80 50 5 342 338 168 157 141
112 116 101 93 107 113 119 133 118 115 131 167 164 138 115 40 13 14 54 359 315 170 34 352 350 11 355 340 356 340 337 342 16 296 284 312 326 335 342 351 346 342 338 332 330 325 333 334 328 329 334 335 335 331 328 320 315 308 304 301 297 295 292 293 293 293 286 283 283 282 279 279 279 283 281 284 281 280 268 228 170 128 99 92 108 109 100
81 102 123 157 126 111 158 354 109 138 96 87 23 96 91 117 163 246 81 170 154 13 345 357 5 350 333 2 349 345 343 342 323 309 315 300 301 312 329 330 333 327 320 318 320 319 306 304 323 332 334 340 340 333 328 321 314 307 301 297 295 294 284 271 277 278 277 275 272 268 273 275 276 274 275 275 277 276 274 261 251 246 231 166 195 182 121
111 99 323 308 213 179 128 108 90 116 137 109 42 318 164 186 182 215 200 245 347 5 335 20 335 345 317 343 336 326 341 332 338 320 302 282 296 323 318 323 317 311 311 310 303 314 324 331 331 335 337 342 343 340 333 324 313 306 303 303 303 298 297 289 280 280 273 269 263 264 265 262 263 271 285 297 294 287 279 269 260 253 274 262 139 97 104
131 111 88 9 51 69 92 92 104 167 164 292 297 271 178 203 208 253 272 225 356 337 304 331 353 291 310 320 320 333 334 330 324 325 312 309 309 307 314 311 308 305 294 282 304 330 332 334 337 338 339 345 346 339 331 324 318 315 315 312 307 305 305 310 312 307 303 296 288 275 258 256 265 268 274 280 285 286 282 269 259 254 135 120 123 126 96
172 173 174 117 140 139 153 168 182 223 262 203 239 246 201 218 218 232 250 224 209 257 334 310 292 309 309 295 300 334 326 321 314 301 295 293 295 301 312 318 309 286 270 306 350 338 329 335 337 341 343 347 344 338 337 331 319 318 317 318 313 315 319 322 323 313 309 310 313 294 263 239 251 264 272 273 276 289 293 282 264 254 135 189 187 153 139
193 171 123 69 149 202 196 226 261 291 246 233 218 233 210 219 237 246 238 272 264 259 260 288 300 296 317 324 351 16 354 343 329 325 287 280 280 329 333 324 319 318 331 334 324 324 327 330 337 340 345 346 342 340 342 333 325 321 321 321 322 310 318 331 321 324 319 319 320 310 291 254 250 256 268 274 282 292 295 285 257 235 187 221 199 135 127
184 172 187 202 203 215 217 243 248 238 230 212 209 213 214 217 228 229 235 238 260 285 267 271 343 352 3 1 6 28 1 320 301 279 293 321 323 316 284 277 277 279 290 305 307 319 326 325 330 338 348 345 338 332 340 346 339 331 328 330 325 323 355 358 333 332 319 314 312 305 283 267 261 263 268 272 278 282 284 283 271 255 232 233 110 118 132
202 200 202 213 217 226 246 265 244 225 226 204 203 219 216 216 223 226 241 247 254 254 247 340 336 52 90 82 72 81 240 256 255 269 240 266 273 273 280 284 281 280 296 296 304 313 320 324 330 339 344 337 334 333 350 357 351 343 339 336 334 339 335 336 337 330 340 330 313 310 299 281 272 266 266 274 291 289 290 286 253 246 256 103 95 107 113
233 263 326 317 262 281 256 266 224 222 213 202 199 214 222 211 221 222 227 234 250 265 35 287 95 99 98 105 135 182 281 276 227 186 192 279 289 285 287 281 282 288 301 289 295 321 333 323 333 351 340 328 319 334 1 2 354 351 355 346 351 343 336 348 348 343 335 328 323 301 293 293 289 292 298 300 292 294 275 246 264 26 51 61 82 92 86
242 259 319 16 124 255 275 288 225 239 205 195 206 208 202 201 213 219 70 339 307 270 197 131 107 113 121 156 183 198 230 268 314 321 299 298 301 297 285 302 304 304 305 291 298 330 334 317 12 357 330 312 310 345 14 5 344 347 360 358 2 354 348 345 352 346 336 331 337 344 335 330 314 313 287 274 277 259 241 63 76 77 82 88 98 108 106
225 213 178 171 156 249 256 254 207 210 222 170 96 34 293 221 211 219 186 205 207 220 140 131 138 147 159 181 203 200 226 242 247 257 261 264 273 277 294 302 312 302 307 289 332 350 324 338 24 339 317 296 295 0 29 4 346 350 337 3 5 8 359 1 356 352 350 353 353 5 19 4 283 268 299 302 283 300 52 75 98 91 89 102 111 118 122
229 226 207 194 212 242 233 224 234 229 188 143 166 181 210 236 237 227 224 274 257 244 165 161 169 174 186 201 216 185 206 234 251 274 310 324 296 294 288 288 275 272 285 274 27 350 320 1 350 315 301 298 334 7 47 3 341 329 325 11 15 16 11 15 14 5 356 357 342 340 323 305 273 15 4 247 61 54 49 52 49 73 87 101 114 123 126
215 217 220 250 248 231 247 220 215 205 188 169 171 187 200 214 217 230 242 291 335 232 216 203 201 191 178 168 177 184 210 217 255 260 260 260 264 279 272 250 257 260 292 10 347 322 339 356 315 306 301 328 351 4 27 355 335 326 5 19 22 24 23 22 26 22 10 1 355 22 20 46 62 73 70 48 61 77 84 74 66 70 82 98 116 134 134
219 220 244 243 244 239 247 202 200 212 194 187 191 186 192 225 268 295 293 264 253 168 226 233 231 210 182 184 190 185 189 194 208 230 240 251 242 253 280 309 327 317 318 338 312 296 2 4 318 309 317 343 343 17 1 339 334 328 11 29 26 30 30 30 34 33 24 24 24 17 33 34 47 56 57 58 62 56 48 59 83 98 98 104 126 122 119
227 219 230 232 243 235 208 201 211 205 207 212 206 214 212 186 208 222 235 258 248 159 251 257 247 242 239 230 230 184 173 176 181 196 226 242 258 268 264 241 229 208 135 269 287 325 347 292 293 324 350 338 351 11 344 341 323 323 24 31 30 29 34 37 42 47 38 28 28 33 44 38 38 47 57 64 68 67 80 78 77 82 84 83 66 54 58
237 239 234 238 236 244 242 196 207 216 218 214 219 219 236 231 219 227 239 246 243 170 220 255 255 247 260 258 258 136 145 165 180 198 203 225 263 258 264 194 170 154 80 354 335 312 293 288 343 343 2 350 343 0 336 328 317 346 28 39 34 32 32 37 44 55 56 42 35 44 53 60 57 55 58 63 69 77 79 77 73 76 85 92 94 87 78
217 208 230 234 236 237 251 228 215 220 217 225 229 224 223 221 233 236 252 276 321 338 255 245 83 335 325 325 303 224 180 176 182 195 205 218 247 284 294 67 83 79 62 287 253 247 246 265 18 37 15 343 328 336 326 311 291 356 28 40 38 41 37 37 46 50 53 57 55 53 53 61 67 73 73 72 71 70 71 75 76 75 76 72 72 69 71
231 216 210 224 232 229 249 259 255 239 233 225 215 214 220 220 223 228 239 248 262 265 237 231 138 170 221 236 243 237 226 193 196 198 205 210 220 235 268 319 358 90 69 291 293 298 360 29 16 35 3 336 317 317 311 299 331 36 23 43 41 43 51 49 52 54 52 52 53 56 57 58 61 64 65 66 68 67 69 70 71 72 74 76 76 73 72
236 233 229 230 238 229 257 263 249 243 246 232 226 220 221 222 219 230 232 250 252 232 253 258 230 212 208 220 229 241 222 196 207 206 223 206 195 200 213 250 335 88 87 296 299 324 28 34 41 12 334 323 316 317 312 316 6 0 20 36 60 41 50 56 55 58 64 58 54 59 60 62 63 64 65 66 65 65 63 67 72 77 80 82 82 83 81
230 231 231 231 237 231 234 233 234 230 223 230 230 225 221 225 225 224 234 232 238 238 228 250 248 230 224 215 225 236 266 272 251 211 226 222 214 167 146 139 208 208 89 329 291 310 62 49 29 348 319 318 313 313 302 340 25 24 9 6 31 71 73 47 55 61 62 68 74 68 63 61 61 61 66 65 66 70 74 80 80 83 85 86 86 90 93
233 237 235 227 235 238 237 244 235 232 234 218 225 223 229 234 230 228 228 237 239 229 225 225 228 223 223 221 225 226 229 241 243 263 291 339 30 79 74 43 58 59 3 304 304 11 80 81 16 335 323 311 317 300 302 27 2 35 26 43 23 8 38 88 77 53 52 63 69 79 85 78 71 67 65 69 69 69 63 64 81 81 84 88 94 99 101
256 234 231 226 229 238 241 234 236 233 229 227 232 243 221 220 233 236 227 226 235 241 231 220 219 223 214 218 223 213 212 210 194 187 210 147 119 111 101 98 102 91 264 283 34 35 40 35 352 327 318 315 314 306 357 29 40 41 43 35 43 67 47 32 49 99 101 83 83 77 66 78 88 90 87 81 77 75 77 75 77 73 72 71 68 67 73
255 250 251 256 252 243 239 238 230 228 233 244 243 231 246 249 232 231 235 233 229 231 237 237 224 212 207 204 209 235 269 280 235 174 167 172 141 145 172 173 130 118 155 146 122 109 103 33 321 311 308 311 297 299 40 29 27 33 42 45 39 42 51 76 75 66 80 99 103 86 87 83 76 71 70 70 72 71 74 77 84 84 86 86 89 90 97
271 266 249 239 246 256 255 244 237 234 243 241 240 237 223 226 231 229 233 235 234 228 231 228 229 220 201 201 228 218 196 209 285 33 118 150 153 150 111 108 124 156 222 248 175 133 131 169 280 294 300 294 296 42 49 56 50 47 42 37 45 39 44 49 53 66 74 72 67 80 97 100 99 97 94 93 97 95 90 82 81 88 95 94 89 87 87
230 241 235 234 234 236 240 244 239 242 243 242 245 252 237 217 227 228 228 228 232 233 237 228 219 209 211 194 195 215 197 178 184 173 155 136 158 139 141 159 150 176 274 302 116 126 142 181 228 248 276 292 38 40 43 46 53 50 69 81 75 76 73 86 84 90 88 85 90 93 87 78 83 86 87 90 89 90 90 93 94 83 54 75 105 107 112
245 258 267 284 270 252 231 228 235 237 238 256 305 318 291 255 232 235 244 251 244 227 234 235 233 223 205 200 195 200 187 184 178 169 187 170 175 137 149 145 150 180 200 225 218 200 172 190 163 195 267 313 74 46 45 35 67 87 49 65 90 120 128 128 75 73 71 92 101 101 104 112 111 112 111 107 105 102 102 106 109 107 102 101 107 110 109
247 243 229 216 223 221 277 289 280 274 266 242 220 217 240 268 257 233 224 215 242 253 241 236 232 221 219 203 196 196 186 184 168 171 193 178 173 176 157 179 180 169 200 218 200 202 212 109 112 87 293 291 77 100 128 237 337 81 84 91 79 74 71 108 129 130 130 134 120 117 115 113 116 114 112 115 114 112 108 103 101 103 107 105 105 105 108